FENGYUN 1C DEB, 32126

Orbit data source: Space-Track

FENGYUN 1C DEB, 32126 is space debris in SSO originally from a launch on Mon, 10 May 1999 UTC launched from the Taiyaun Space Center, China (TSC). Fengyun 1C debris stems from the Chinese weather satellite Fengyun-1C, which was intentionally destroyed by a Chinese anti-satellite missile in 2007. This event dramatically increased the amount of space debris, with thousands of trackable fragments posing hazards to satellites and human spaceflight. The Fengyun 1C debris cloud has become a focal point in discussions about space sustainability and the need for international regulations to prevent the creation of new debris.

Loading next visibility...
Identifier
32126, 1999-025CRU
Orbit
SSO
Country
Flag of CNCN / PRC
Related business
Manufacturer
Unknown
Mission
Spacecraft
Bus & Motor
Unknown
Mass
Unknown
Launch date (UTC)
1999-05-10 (26 years ago)
Launch vehicle
Unknown
Launch site
Taiyaun Space Center, China (TSC)
Object type
Payload
Rocket body
Debris
Shape & HBR
Unknown shape, 0.1 m
Radar Cross Section
Small (<0.1 m²)

Expand to show TLE details & history
Last TLE update: 3 days ago

TLE from 3 days ago
0 FENGYUN 1C DEB
1 32126U 99025CRU 25307.92302863  .00001298  00000-0  14600-2 0  9992
2 32126  99.1110 186.8181 0283446 354.7279   5.0894 13.56666662611881
Epoch: 2025-11-03T22:09Z
TLE epoch observation values (Epoch: 2025-11-03T22:09:09.673Z)
Latitude
-0.00009°
Longitude
171.11037°
Altitude
841.002 km
Speed
7.536 km/s
True Right ascension
12h 27m 16s
True Declination
0° 00' 00"
Sunlit
Object was in daylight at epoch
Visualization orbit readout
Latitude
Unknown
Longitude
Unknown
Altitude
Unknown
Speed
Unknown
Apparent Right ascension
Unknown
Apparent Declination
Unknown
Sunlit
N/A
Visualization observer readout
Local Sidereal Time
11:12:58
Azimuth
Unknown
Elevation
Unknown
Doppler factor
Unknown
Orbital elements
Apogee altitude
1,255.499 km
Perigee altitude
834.682 km
Semi-major axis
7,423.228 km
Eccentricity
0.02834
Inclination
99.111°
RAAN
186.8181°
Arg. of periapsis
354.7279°
True anomaly
5.38806°
Mean anomaly
5.0894°
Eccentric anomaly
5.23765°
Mean motion
3.39355 °/min
Orbital period
106.08 mins
BSTAR
0.00146
Loading maneuver chart data...
Computing Atmospheric mass density...

Documentation

Showing up to 5 results
|